Back to catalog

SL-12 DEB

AliveHEO
NORAD 25806·DEBRIS·🇷🇺 Russia

Launched Sep 16, 1987 from Baikonur Cosmodrome

Loading…

Next Passes (next 24 hours)

TLE

FreshSource: Space-Track

Epoch: Sep 13, 2026, 21:12 UTC

1 25806U 87079R   26256.88378931  .00062450  00000-0  12883-1 0  9990
2 25806  64.4182 215.0817 4360523 354.0226   2.1429  6.67796163178901

Track SL-12 DEB in real time with AllMySat

Download on the App Store